Location: Haulchin
(50.3172°N, 3.4360°E)
Time: 20:55:29
(UTC+00:00)

ADEOS II - Pass Details

Date: 23 May 2024
Orbit: 795 x 798 km, 98.7° (Epoch: 14 June)

Event Time Altitude Azimuth Distance (km) Brightness Sun altitude
Rises 01:12:24 0° 23° (NNE) 3,313 7.1 -16.3°
Reaches altitude 10° 01:15:07 10° 36° (NE) 2,378 5.8 -16.2°
Maximum altitude 01:19:31 27° 93° (E) 1,500 3.7 -15.9°
Drops below altitude 10° 01:23:54 10° 150° (SSE) 2,362 4.2 -15.6°
Enters shadow 01:24:15 - 153° (SSE) 2,472 4.3 -15.6°
